Regional Weather Roundup
Issued by NWS Cleveland, OH

Home | Current Version | Previous Version | Text Only | Print | Product List | Glossary Off
Versions: 1 2 3 4 5 6 7 8 9 10 11 12 13 14 15 16 17 18 19 20 21 22 23 24 25 26 27 28 29 30 31 32 33 34 35 36 37 38 39 40 41 42 43 44 45 46 47 48 49 50

000
ASUS41 KCLE 260310
RWRCLE
OHIO REGIONAL WEATHER ROUNDUP
NATIONAL WEATHER SERVICE WILMINGTON, OH
1100 PM EDT MON JUL 25 2016

NOTE: "FAIR" INDICATES FEW OR NO CLOUDS BELOW 12,000 FEET WITH NO
SIGNIFICANT WEATHER AND/OR OBSTRUCTIONS TO VISIBILITY.

OHZ001>008-015>018-024>027-034-035-043-044-260400-
   NORTHWEST OHIO

CITY           SKY/WX    TMP DP  RH WIND       PRES   REMARKS
DEFIANCE       FAIR      76  65  68 NW6       30.00R
FINDLAY        FAIR      74  67  78 SW3       29.98R
TOLEDO EXPRESS FAIR      76  68  76 W8        29.99R
TOLEDO EXEC    FAIR      78  68  71 W7        29.98R
LIMA           FAIR      74  70  87 W5        30.01R
$$

OHZ009>014-019>023-028>033-038-089-260400-
   NORTHEAST OHIO

CITY           SKY/WX    TMP DP  RH WIND       PRES   REMARKS
CLE-HOPKINS    FAIR      79  67  66 W5        29.98S
CLE-LAKEFRONT  FAIR      79  73  82 W6        29.94S
CUY CO. ARPT   NOT AVBL
LORAIN-ELYRIA  FAIR      73  67  81 W5        29.98R
ASHTABULA      FAIR      70  69  97 CALM      29.97S
AKRON-CANTON   FAIR      76  67  73 NW5       29.99S
WOOSTER        FAIR      71  66  84 N5        30.00R
MANSFIELD      FAIR      76  68  76 CALM      30.01R
YOUNGSTOWN     MOCLDY    73  67  81 CALM      29.98S
$$

OHZ042-051>053-060>062-070>072-077>081-260400-
  SOUTHWEST OHIO

CITY           SKY/WX    TMP DP  RH WIND       PRES   REMARKS
CINC-COVINGTON CLOUDY    78  76  93 S3        30.01R
CINC-LUNKEN    FAIR      78  76  93 SW3       30.00R
HAMILTON       FAIR      78  71  79 CALM      30.00S
DAYTON         MOCLDY    79  71  76 NW6       30.02R
WRIGHT-PAT AFB FAIR      81  73  75 NW8       30.00R
DAYTON GENERAL FAIR      81  69  67 W3        30.01R
WILMINGTON     FAIR      76  73  91 S3        30.01S
$$

OHZ036-037-039>041-045>050-054>059-063>069-073>076-082>088-260400-
  CENTRAL AND SOUTHEAST OHIO

CITY           SKY/WX    TMP DP  RH WIND       PRES   REMARKS
COLUMBUS       MOCLDY    81  66  60 NW7       29.98R
OSU AIRPORT    FAIR      79  69  71 NW5       29.99S
BOLTON FIELD   FAIR      78  70  75 CALM      30.00S
RICKENBACK AFB FAIR      77  70  79 S5        29.98S
NEWARK         FAIR      74  70  87 CALM      29.98S
MARION         FAIR      79  69  71 W5        30.00R
LANCASTER      FAIR      77  72  84 CALM      29.99S
ZANESVILLE     FAIR      80  64  58 CALM      29.98S
NEW PHILLY     FAIR      78  66  66 CALM      29.98S
$$




USA.gov is the U.S. government's official web portal to all federal, state and local government web resources and services.